Flag for Montserrat Weather past 2 weeks in Brades, Montserrat

Now
82 °F

Passing clouds.


Feels Like: 89 °F
Forecast: 82 / 85 °F
Wind: 9 mph from Southeast

Location: Vc Bird International Antigua Airport

Current Time: Oct 1, 2014 at 10:46:54 PM

Latest Report: Oct 1, 2014 at 10:00 PM


Visibility: N/A

Pressure: 30.04 "Hg

Humidity: 79%

Dew point: 75 °F

Location of BradesLocation

Historic Weather in Brades — Graph

°F

Brades temperature yesterday

Maximum temperature yesterday: 86 °F (at 9:00 AM)
Minimum temperature yesterday: 79 °F (at 3:00 AM)
Average temperature yesterday: 83 °F

Past Weeks' High & Low Weather Summary

 TemperatureHumidityPressure
High88 °F (Sep 18, 12:00 PM)94% (Sep 22, 4:00 PM)30.04 "Hg (Sep 22, 4:00 PM)
Low75 °F (Sep 26, 12:00 PM)59% (Sep 19, 3:00 PM)29.83 "Hg (Sep 26, 3:00 AM)
Average82 °F79%29.95 "Hg
* Reported Sep 16 10:00 PM — Oct 1 10:00 PM, Brades, Weather by CustomWeather, © 2014

Note: Actual official high and low records may vary slightly from our data, if they occured in-between our weather recording intervals... More about our weather records

Advertising

Brades weather history for previous 24 hours

 ConditionsComfort  
Time TempWeatherWind HumidityBarometerVisibility
10:00 PM
Oct 1
82 °FPassing clouds.9 mph79%30.04 "HgN/A
9:00 PM82 °FPassing clouds.8 mph79%30.04 "HgN/A
8:00 PM82 °FSprinkles. Passing clouds.7 mph79%30.01 "HgN/A
7:00 PM82 °FPassing clouds.8 mph79%30.01 "HgN/A
6:00 PM82 °FPassing clouds.8 mph74%29.98 "HgN/A
5:00 PM84 °FPartly sunny.10 mph74%29.98 "HgN/A
4:00 PM84 °FScattered clouds.13 mph74%29.98 "HgN/A
3:00 PM86 °FScattered clouds.10 mph70%29.98 "HgN/A
2:00 PM86 °FSprinkles. Partly sunny.10 mph70%29.98 "HgN/A
1:00 PM86 °FScattered clouds.13 mph70%30.01 "HgN/A
12:00 PM86 °FPartly sunny.12 mph70%30.01 "HgN/A
11:00 AM86 °FScattered clouds.13 mph75%30.04 "HgN/A
10:00 AM86 °FPartly sunny.12 mph70%30.04 "HgN/A
9:00 AM86 °FScattered clouds.10 mph70%30.04 "HgN/A
8:00 AM84 °FScattered clouds.9 mph74%30.04 "HgN/A
7:00 AM82 °FScattered clouds.9 mph74%30.01 "HgN/A
6:00 AM81 °FScattered clouds.6 mph79%29.98 "HgN/A
5:00 AM81 °FPassing clouds.6 mph79%29.98 "HgN/A
4:00 AM81 °FPassing clouds.8 mph79%29.98 "HgN/A
3:00 AM81 °FPassing clouds.9 mph79%29.98 "HgN/A
2:00 AM81 °FPassing clouds.8 mph79%29.98 "HgN/A
1:00 AM82 °FPassing clouds.7 mph74%29.98 "HgN/A
12:00 AM82 °FPassing clouds.8 mph79%30.01 "HgN/A
11:00 PM
Sep 30
82 °FPassing clouds.7 mph74%30.01 "HgN/A
10:00 PM82 °FPassing clouds.7 mph74%30.01 "HgN/A
Weather by CustomWeather, © 2014

See weather overviewHow to use our weather pages